[[{"header":{"parameterUnit":"m.s-1","parameterCategory":1,"la1":30.2991,"la2":30.254,"lo1":-89.0895,"lo2":-89.0444,"dy":0.0017,"dx":0.0017,"nx":28,"ny":28,"refTime":"2024-05-22T03:00:00:Z","depth":0,"parameterNumber":2,"parameterNumberName":"U-component_of_WINDS"},"data":[0,0,0,0,0,0,0,0,0,0,0,0,0,0,0,0,0,0,0,0,0,0,0,0,0,0,0,0,0,0,0,0,0,0,0,0,0,0,0,0,0,0,0,0,0,0,0,0,0,0,0,0,0,0,0,0,0,0,-2.6448,-2.6449,0,-2.646,-2.646,-2.646,-2.6427,-2.6425,-2.6424,-2.6423,-2.6433,-2.6435,-2.6436,0,0,0,0,0,0,0,0,0,0,0,0,0,-2.6396,-2.6397,-2.6448,-2.6449,-2.6449,-2.646,-2.646,-2.646,-2.6427,-2.6425,-2.6424,-2.6423,-2.6433,-2.6434,-2.6436,0,0,0,0,0,0,0,0,0,0,0,0,0,-2.6414,-2.6397,-2.6448,-2.6433,-2.6432,-2.646,-2.646,-2.646,-2.6427,-2.6425,-2.6424,-2.6422,-2.6433,-2.6434,-2.6436,-2.6479,0,0,-2.6442,-2.6443,0,0,0,0,0,0,0,0,-2.6413,-2.6416,-2.6435,-2.6434,-2.6433,-2.644,-2.6445,-2.6466,-2.6427,-2.6429,-2.6423,-2.6422,-2.6437,-2.6438,-2.6444,-2.6479,-2.6479,-2.6442,-2.6443,-2.6444,-2.6444,0,0,0,0,0,0,0,-2.6412,-2.6415,-2.6453,-2.6436,-2.6434,-2.6426,-2.6427,-2.6449,-2.6441,-2.6429,-2.6426,-2.6428,-2.6436,-2.6442,-2.6444,-2.648,-2.6442,-2.6444,-2.6445,-2.6445,-2.6551,-2.6552,0,0,0,0,0,0,-2.6413,-2.6415,-2.6453,-2.6453,-2.6419,-2.6428,-2.6429,-2.644,-2.6441,-2.644,-2.6429,-2.6427,-2.644,-2.6442,-2.6444,-2.6493,-2.6444,-2.6446,-2.6447,-2.6549,-2.6551,-2.6553,0,0,0,0,0,0,-2.6412,-2.6416,-2.6452,-2.6433,-2.6437,-2.643,-2.6443,-2.6441,-2.6447,-2.6442,-2.644,-2.6437,-2.6439,-2.6441,-2.647,-2.6493,-2.6446,-2.6448,-2.6547,-2.6549,-2.6552,-2.6592,0,0,0,0,0,0,-2.641,-2.6416,-2.6432,-2.6434,-2.6438,-2.6479,-2.6444,-2.6442,-2.645,-2.6446,-2.6449,-2.6447,-2.6438,-2.6468,-2.6472,-2.6495,-2.645,-2.6545,-2.6548,-2.6551,-2.6589,-2.6596,-2.6602,0,0,0,0,0,-2.6409,-2.6443,-2.6433,-2.6438,-2.6458,-2.648,-2.6482,-2.6471,-2.6452,-2.6468,-2.6465,-2.6447,-2.6491,-2.6471,-2.6476,-2.6499,-2.6543,-2.6547,-2.6551,-2.6586,-2.6594,-2.6602,0,0,0,0,0,0,-2.6443,-2.6443,-2.6432,-2.6468,-2.6474,-2.6474,-2.6494,-2.648,-2.6492,-2.6487,-2.6473,-2.6473,-2.6505,-2.6505,-2.6484,-2.654,-2.6514,-2.6518,-2.6539,-2.6547,-2.6553,-2.6551,-2.6451,0,0,0,0,0,-2.6455,-2.6473,-2.6472,-2.6503,-2.6507,-2.65,-2.6509,-2.65,-2.6506,-2.6508,-2.6507,-2.6513,-2.6528,-2.6538,-2.6551,-2.659,-2.6589,-2.6608,-2.6615,-2.662,-2.6624,-2.6644,-2.6652,-2.6565,-2.6565,-2.6565,0,0,-2.6479,-2.6481,-2.6493,-2.651,-2.6514,-2.6533,-2.6503,-2.6523,-2.6537,-2.6511,-2.6538,-2.6538,-2.6544,-2.6578,-2.6592,-2.6579,-2.6648,-2.6625,-2.6629,-2.663,-2.6648,-2.6657,-2.6664,-2.6568,-2.6567,-2.6567,0,0,-2.6532,-2.6536,-2.6563,-2.6568,-2.6575,-2.657,-2.6577,-2.658,-2.6579,-2.6606,-2.6587,-2.6603,-2.6629,-2.6634,-2.664,-2.6697,-2.6681,-2.6702,-2.6735,-2.6755,-2.6762,-2.6768,-2.6787,-2.6794,-2.6706,-2.6707,-2.6707,0,-2.6561,-2.6588,-2.6578,-2.66,-2.6608,-2.6588,-2.6614,-2.662,-2.663,-2.6636,-2.6621,-2.6654,-2.6656,-2.6691,-2.6705,-2.6711,-2.6717,-2.67,-2.6762,-2.6768,-2.6773,-2.6791,-2.6799,-2.6709,-2.6709,-2.6708,-2.6708,0,-2.6623,-2.6643,-2.6663,-2.6675,-2.6686,-2.671,-2.6703,-2.6715,-2.6706,-2.6704,-2.6732,-2.6735,-2.6748,-2.6756,-2.6747,-2.679,-2.6781,-2.6765,-2.6736,-2.6784,-2.6801,-2.6808,-2.6712,-2.6712,-2.6711,-2.671,0,0,-2.6695,-2.6703,-2.671,-2.6715,-2.6723,-2.6737,-2.6761,-2.6776,-2.6786,-2.6795,-2.6814,-2.6837,-2.6822,-2.6829,-2.6821,-2.6838,-2.6883,-2.682,-2.6819,-2.683,-2.6929,-2.6939,-2.6948,-2.6873,-2.6875,-2.6876,-2.6928,0,-2.6746,-2.6787,-2.678,-2.682,-2.6837,-2.682,-2.684,-2.6847,-2.6846,-2.686,-2.6859,-2.6875,-2.6855,-2.6859,-2.6876,-2.6874,-2.6902,-2.687,-2.6889,-2.689,-2.6886,-2.6957,-2.6968,-2.7017,-2.6934,-2.6935,-2.6936,0,-2.681,-2.6823,-2.6865,-2.687,-2.6877,-2.6896,-2.6909,-2.6924,-2.6931,-2.6929,-2.6938,-2.6926,-2.695,-2.6924,-2.6956,-2.6934,-2.6942,-2.6943,-2.6944,-2.6944,-2.6914,-2.6956,-2.7032,-2.7039,-2.6947,-2.6946,-2.6945,0,-2.6857,-2.6884,-2.6913,-2.6918,-2.6925,-2.6939,-2.6943,-2.6949,-2.6958,-2.697,-2.6975,-2.6989,-2.6996,-2.7007,-2.7,-2.6982,-2.7033,-2.7007,-2.703,-2.7031,-2.7039,-2.7038,-2.7116,-2.7049,-2.7048,-2.7048,-2.7048,0,-2.6913,-2.6939,-2.6934,-2.6951,-2.698,-2.6972,-2.7,-2.7002,-2.7008,-2.7024,-2.7011,-2.7027,-2.7017,-2.7033,-2.7028,-2.7054,-2.7058,-2.7056,-2.7054,-2.7056,-2.7056,-2.7059,-2.7054,-2.705,-2.705,-2.7049,-2.7049,0,-2.6968,-2.6966,-2.6996,-2.7001,-2.7003,-2.7024,-2.7028,-2.7044,-2.7043,-2.7065,-2.707,-2.7067,-2.7085,-2.708,-2.7098,-2.7095,-2.7128,-2.7123,-2.7125,-2.7123,-2.7147,-2.7144,-2.7227,-2.7237,-2.7165,-2.7166,-2.7166,0,-2.7003,-2.7023,-2.7031,-2.7042,-2.7047,-2.7065,-2.7075,-2.7068,-2.7079,-2.709,-2.7105,-2.7122,-2.7134,-2.7163,-2.7162,-2.7177,-2.717,-2.7199,-2.7172,-2.7174,-2.7169,-2.7167,-2.7168,-2.7203,-2.7204,-2.7204,-2.7205,0,-2.7065,-2.7063,-2.7079,-2.7094,-2.7107,-2.7119,-2.7129,-2.7138,-2.7133,-2.7146,-2.7164,-2.7174,-2.7194,-2.721,-2.7224,-2.7227,-2.7215,-2.7214,-2.722,-2.7221,-2.7221,-2.7219,-2.7137,-2.7211,-2.721,-2.721,-2.721,-2.7209,-2.711,-2.7126,-2.7135,-2.7153,-2.7161,-2.7171,-2.7186,-2.7188,-2.7204,-2.722,-2.7215,-2.7236,-2.7244,-2.7261,-2.7266,-2.7282,-2.7271,-2.728,-2.7282,-2.7283,-2.7286,-2.7221,-2.7284,-2.7284,-2.7284,-2.7284,-2.7284,0,-2.7169,-2.7175,-2.7191,-2.7207,-2.7221,-2.7211,-2.7222,-2.7234,-2.7253,-2.7262,-2.7275,-2.7296,-2.7313,-2.7315,-2.733,-2.7342,-2.7337,-2.7346,-2.7344,-2.7345,-2.7295,-2.7288,-2.735,-2.735,-2.735,-2.735,-2.735,-2.735,-2.7202,-2.7229,-2.7229,-2.7261,-2.7266,-2.7287,-2.7294,-2.7304,-2.7311,-2.7335,-2.7349,-2.7351,-2.7357,-2.7373,-2.7387,-2.7387,-2.7393,-2.7404,-2.7402,-2.7355,-2.7348,-2.7342,-2.7334,-2.7406,-2.7406,-2.7449,-2.745,-2.745]},{"header":{"parameterUnit":"m.s-1","parameterCategory":1,"la1":30.2991,"la2":30.254,"lo1":-89.0895,"lo2":-89.0444,"dy":0.0017,"dx":0.0017,"nx":28,"ny":28,"refTime":"2024-05-22T03:00:00:Z","depth":0,"parameterNumber":3,"parameterNumberName":"V-component_of_WINDS"},"data":[0,0,0,0,0,0,0,0,0,0,0,0,0,0,0,0,0,0,0,0,0,0,0,0,0,0,0,0,0,0,0,0,0,0,0,0,0,0,0,0,0,0,0,0,0,0,0,0,0,0,0,0,0,0,0,0,0,0,4.169,4.1689,0,4.1534,4.1532,4.153,4.1437,4.1437,4.1437,4.1436,4.1267,4.1263,4.1259,0,0,0,0,0,0,0,0,0,0,0,0,0,4.1902,4.1899,4.169,4.1688,4.1686,4.1534,4.1532,4.153,4.1437,4.1437,4.1436,4.1436,4.1269,4.1264,4.1259,0,0,0,0,0,0,0,0,0,0,0,0,0,4.1784,4.1898,4.1691,4.1622,4.1615,4.1534,4.1532,4.1529,4.1438,4.1437,4.1436,4.1436,4.127,4.1264,4.1258,4.1231,0,0,4.1239,4.1237,0,0,0,0,0,0,0,0,4.1791,4.1777,4.1634,4.1627,4.1618,4.1505,4.1545,4.1429,4.1438,4.1504,4.1436,4.1436,4.1346,4.1334,4.1305,4.1223,4.1216,4.1239,4.1235,4.1232,4.1231,0,0,0,0,0,0,0,4.18,4.1783,4.1628,4.1632,4.1622,4.1597,4.158,4.1522,4.143,4.1499,4.1492,4.1475,4.1342,4.1312,4.1301,4.1214,4.1239,4.1233,4.123,4.1227,4.1103,4.1103,0,0,0,0,0,0,4.182,4.179,4.1633,4.1623,4.1705,4.1594,4.1574,4.1541,4.1431,4.1413,4.1475,4.1471,4.1322,4.1308,4.1294,4.1256,4.1232,4.1226,4.1223,4.1102,4.1103,4.1103,0,0,0,0,0,0,4.1825,4.1807,4.1639,4.1705,4.1682,4.1591,4.1555,4.1539,4.1509,4.1413,4.1395,4.1462,4.1321,4.1303,4.1248,4.1249,4.1224,4.1218,4.1102,4.1102,4.1103,4.118,0,0,0,0,0,0,4.1831,4.1809,4.1799,4.1706,4.1679,4.1598,4.1555,4.1536,4.1499,4.1492,4.1396,4.1379,4.132,4.1258,4.1242,4.124,4.1213,4.1101,4.1102,4.1103,4.1177,4.1183,4.1188,0,0,0,0,0,4.1839,4.1825,4.1799,4.1781,4.1665,4.1599,4.1583,4.1517,4.15,4.1488,4.1427,4.1382,4.1252,4.1254,4.1235,4.1231,4.1101,4.1102,4.1103,4.1174,4.1182,4.1188,0,0,0,0,0,0,4.1917,4.1811,4.1782,4.1737,4.1678,4.1583,4.1566,4.1527,4.1469,4.1464,4.1382,4.1361,4.1314,4.1267,4.127,4.1199,4.1171,4.1169,4.1232,4.1239,4.1244,4.1256,4.1208,0,0,0,0,0,4.193,4.1888,4.1796,4.1765,4.1738,4.1658,4.1626,4.1581,4.1515,4.1488,4.1423,4.1359,4.1303,4.1268,4.1212,4.117,4.1147,4.1158,4.1164,4.1169,4.1167,4.1142,4.1146,4.1106,4.1106,4.1106,0,0,4.1954,4.1891,4.1869,4.178,4.1728,4.1684,4.1637,4.1592,4.1557,4.148,4.1426,4.1376,4.1299,4.1251,4.1227,4.121,4.1173,4.117,4.1175,4.117,4.1143,4.1147,4.1151,4.1107,4.1107,4.1107,0,0,4.1977,4.1925,4.1895,4.1846,4.177,4.1717,4.1711,4.1622,4.1587,4.1532,4.1474,4.1431,4.1337,4.1285,4.1246,4.1252,4.1209,4.1235,4.1265,4.1242,4.1245,4.1247,4.125,4.1251,4.1234,4.1234,4.1234,0,4.2016,4.1949,4.1883,4.1843,4.1805,4.1737,4.1705,4.1659,4.1568,4.1543,4.1526,4.1409,4.1352,4.1291,4.1293,4.1264,4.1252,4.1245,4.125,4.1252,4.1253,4.1254,4.1256,4.1238,4.1238,4.1237,4.1237,0,4.2001,4.1956,4.1941,4.1859,4.1819,4.1783,4.1709,4.1677,4.1636,4.1585,4.1529,4.1459,4.1388,4.1371,4.1328,4.1304,4.1297,4.1267,4.1237,4.1262,4.1262,4.1262,4.1244,4.1242,4.1241,4.124,0,0,4.2066,4.1951,4.1946,4.1909,4.1822,4.1785,4.1745,4.1679,4.1653,4.1593,4.1557,4.1481,4.1453,4.1409,4.136,4.134,4.135,4.1312,4.1309,4.1322,4.132,4.1344,4.1345,4.1322,4.1322,4.1321,4.1327,0,4.2075,4.2005,4.1945,4.1895,4.1853,4.1789,4.1755,4.1697,4.1648,4.1603,4.1548,4.1496,4.1463,4.1437,4.1414,4.1354,4.1349,4.1353,4.1286,4.1284,4.1308,4.1345,4.1369,4.1377,4.1326,4.1326,4.1326,0,4.2076,4.2023,4.1971,4.189,4.187,4.1841,4.1776,4.1735,4.1668,4.1634,4.1587,4.1537,4.1491,4.1467,4.1402,4.1407,4.1376,4.1342,4.1341,4.1332,4.1307,4.1337,4.1378,4.138,4.1325,4.1325,4.1325,0,4.213,4.2044,4.2002,4.1972,4.1877,4.1858,4.1817,4.175,4.1715,4.1657,4.1633,4.1571,4.1536,4.1488,4.1422,4.1411,4.1364,4.1335,4.1334,4.1336,4.1326,4.1327,4.1364,4.1307,4.1307,4.1307,4.1307,0,4.2146,4.2116,4.2025,4.1999,4.1964,4.1895,4.1861,4.1814,4.1756,4.1718,4.1658,4.1624,4.1539,4.1494,4.1442,4.1397,4.1381,4.1351,4.1338,4.1357,4.1361,4.1335,4.1332,4.1307,4.1307,4.1307,4.1307,0,4.2199,4.2137,4.2087,4.2003,4.1981,4.1959,4.1885,4.1857,4.1806,4.176,4.1745,4.1664,4.1609,4.1539,4.1459,4.1425,4.1385,4.1364,4.1409,4.1401,4.1404,4.1405,4.1424,4.1424,4.1369,4.1369,4.137,0,4.2214,4.219,4.2105,4.2077,4.2039,4.1995,4.196,4.1891,4.1857,4.178,4.1761,4.1702,4.165,4.1564,4.1497,4.1436,4.1414,4.1425,4.1404,4.1424,4.1414,4.1417,4.1414,4.143,4.1431,4.1432,4.1432,0,4.2246,4.2217,4.2171,4.2115,4.2076,4.2027,4.1975,4.1955,4.1875,4.1839,4.1784,4.1745,4.1666,4.1607,4.1539,4.1494,4.145,4.144,4.1437,4.1455,4.1482,4.1468,4.1423,4.1439,4.1439,4.1438,4.1438,4.1437,4.2279,4.2256,4.2194,4.2144,4.2099,4.2053,4.2023,4.1971,4.1924,4.1857,4.1819,4.1765,4.1699,4.1603,4.156,4.1516,4.1499,4.1494,4.1493,4.1493,4.1499,4.1491,4.1503,4.1502,4.1502,4.1502,4.1502,0,4.2309,4.2267,4.2223,4.2154,4.2116,4.2081,4.2023,4.1992,4.1946,4.189,4.1842,4.1779,4.1722,4.1653,4.1591,4.1569,4.1547,4.1555,4.1556,4.1546,4.1517,4.1526,4.1574,4.1574,4.1574,4.1574,4.1574,4.1574,4.232,4.228,4.2244,4.2181,4.2137,4.2086,4.2056,4.2013,4.1968,4.1901,4.1856,4.1812,4.175,4.1684,4.1631,4.1612,4.1592,4.1606,4.1581,4.1554,4.1548,4.1542,4.155,4.1602,4.1602,4.1613,4.1614,4.1614]}]]